Location: *
(49.4547°N, 7.9131°E)
Time: 07:15:27
(UTC+00:00)

Cosmos 1452 Rocket - Pass Details

Date: 22 September 2019
Orbit: 767 x 775 km, 74.1° (Epoch: 23 October)

Event Time Altitude Azimuth Distance (km) Brightness Sun altitude
Rises 20:00:58 0° 207° (SSW) 3,226 6.7 -24.5°
Reaches altitude 10° 20:03:20 10° 209° (SSW) 2,303 5.9 -24.9°
Maximum altitude 20:08:33 74° 294° (WNW) 803 3.6 -25.6°
Drops below altitude 10° 20:13:50 10° 21° (NNE) 2,319 6.1 -26.3°
Sets 20:16:13 0° 23° (NNE) 3,251 6.9 -26.6°
